Temp
23 26 30 32 31 35 36 37 39 38 37 38 37 36 36 35 34 32 32 31 31 30 27 23 23 24 24 24 24 24 24 24 24 24 23 23 23 22 21 21 22 21 21 22 22 22 22 21 21
27 29 31 35 30 28 36 37 37 38 38 38 38 38 36 33 34 32 31 30 31 29 27 26 23 24 24 24 24 24 24 24 24 24 23 23 23 22 21 21 22 21 21 21 22 22 22 22 22
24 28 35 37 30 32 35 38 38 37 38 38 37 37 36 33 34 33 30 29 31 30 29 27 24 23 23 24 24 24 24 23 24 23 23 23 22 22 21 21 21 21 21 22 22 22 21 21 21
31 35 35 29 31 38 38 38 38 37 38 38 37 34 34 33 34 33 29 30 30 30 30 26 24 23 23 23 23 23 23 23 23 23 23 23 22 21 21 21 21 21 21 21 21 22 21 21 21
32 36 36 37 38 39 39 39 39 38 38 38 38 36 33 32 32 31 30 30 30 30 27 24 24 23 23 23 23 23 23 23 23 23 22 22 22 21 21 22 21 22 21 21 22 21 21 21 21
35 38 30 35 37 39 39 40 39 38 38 37 37 36 33 31 31 31 30 30 30 30 27 24 23 23 23 23 23 23 22 22 22 23 21 22 22 22 22 22 22 22 21 21 22 22 21 21 21
35 38 34 38 38 38 38 40 39 39 38 38 38 36 33 33 30 30 29 30 29 29 26 25 24 23 23 22 23 23 23 22 22 22 22 22 22 22 22 22 22 22 21 22 22 22 21 21 20
36 38 38 38 38 38 39 40 40 39 37 38 38 35 33 33 30 29 27 27 27 28 25 26 24 24 24 23 23 23 23 23 23 23 23 22 22 22 22 22 22 21 22 22 22 22 21 21 20
37 37 38 38 38 39 40 40 39 39 38 37 37 37 36 31 30 29 28 26 26 26 27 26 25 25 24 24 23 22 23 23 23 23 23 23 23 23 22 22 22 22 22 22 22 22 21 21 20
36 38 37 39 39 39 39 39 39 39 38 36 35 35 33 31 30 30 29 27 27 27 27 26 25 25 24 25 23 23 22 22 22 23 25 22 23 24 23 23 22 22 22 22 22 22 22 22 23
38 37 39 39 39 39 40 40 40 39 38 35 36 34 33 32 31 31 30 30 28 27 26 26 25 24 24 25 24 23 22 21 21 23 23 24 22 22 22 24 23 22 22 22 22 21 22 23 23
37 38 38 39 39 39 39 40 40 39 39 39 38 35 34 33 32 32 31 30 30 29 28 27 27 26 26 25 26 23 23 22 21 21 23 24 23 23 22 23 23 22 22 22 22 23 24 23 22
37 38 39 39 39 39 39 39 39 39 40 38 37 35 34 34 33 32 31 30 29 28 27 26 25 25 25 25 27 26 25 24 22 21 22 23 22 22 22 22 23 22 22 23 22 23 23 23 22
39 38 38 39 39 39 38 39 40 38 39 37 36 35 35 35 33 32 31 30 29 28 27 26 24 24 24 24 24 25 26 25 25 23 22 22 21 21 21 22 22 23 23 22 22 22 23 23 23
38 36 38 39 40 39 39 38 30 38 38 37 36 36 36 35 33 32 31 30 29 28 27 26 25 24 24 23 24 24 25 23 23 24 24 21 21 21 21 21 21 22 23 22 23 22 23 23 23
36 37 37 40 39 39 39 34 37 38 38 37 36 36 35 34 34 32 31 30 29 28 27 27 26 25 24 23 23 24 25 25 25 24 23 22 21 21 21 22 21 22 22 23 22 22 23 23 23
37 37 38 38 39 39 38 38 37 38 38 37 36 36 35 35 34 32 31 30 29 28 27 26 25 24 23 23 23 23 23 23 25 25 23 23 21 21 21 23 23 22 22 22 22 22 23 25 23
37 38 38 37 38 38 38 38 39 38 38 38 37 36 35 35 34 32 31 31 30 28 26 25 25 24 23 24 23 23 23 23 24 25 23 22 21 21 20 22 24 22 23 21 22 23 24 24 23
38 37 37 38 38 37 38 37 38 38 38 38 37 36 35 35 35 34 32 31 30 28 26 25 24 24 24 23 22 22 21 23 23 23 24 22 21 20 20 21 22 21 22 21 22 22 23 22 21
36 36 36 37 38 37 37 37 39 38 38 38 38 37 36 35 35 35 33 31 30 28 26 25 24 24 23 22 22 22 20 21 20 20 20 22 21 20 20 20 21 22 22 22 21 21 22 21 21
36 36 36 36 37 37 37 36 37 38 38 38 38 37 37 36 35 34 32 31 29 28 27 26 25 24 22 22 21 20 20 19 20 20 20 20 21 21 20 20 20 21 21 21 21 21 21 20 21
35 37 36 36 36 35 37 35 36 36 38 37 37 36 36 36 35 34 31 30 29 28 28 27 25 24 22 21 22 20 19 20 20 20 19 19 19 20 20 20 20 20 21 20 21 21 21 20 21
36 37 36 36 36 36 37 36 37 38 37 38 38 37 36 36 35 33 31 29 29 29 29 27 24 23 22 21 20 19 20 19 19 19 19 19 19 19 20 20 20 20 20 21 20 21 21 20 21
37 35 35 35 36 35 36 36 37 37 35 37 37 36 35 34 34 32 28 28 29 29 28 27 25 22 22 22 21 19 18 19 19 19 19 19 18 19 19 19 19 20 20 21 20 20 20 21 22
36 35 33 33 34 34 36 35 36 37 36 36 36 35 35 34 33 29 28 30 29 29 27 27 25 22 22 22 20 19 20 20 20 20 19 19 19 19 19 19 19 19 20 20 20 21 20 21 21
35 35 35 33 34 34 36 35 36 36 36 34 35 36 35 34 32 30 26 30 29 28 26 26 24 23 21 21 21 19 18 19 19 18 20 20 20 19 19 19 19 19 20 20 20 20 20 21 21
35 34 37 35 36 36 35 37 36 35 35 34 34 35 34 34 31 31 30 30 28 27 26 26 24 23 22 22 21 20 17 18 18 18 19 19 19 19 19 19 19 19 19 19 19 20 20 20 20
36 37 34 35 33 33 35 36 36 34 34 34 34 34 34 34 31 31 31 30 28 27 26 25 24 22 22 22 21 20 19 18 18 18 18 18 19 19 19 19 19 19 19 19 19 19 20 20 21
36 35 35 37 36 34 34 35 26 30 35 34 34 34 33 33 32 31 31 29 27 26 25 24 25 23 22 21 22 21 20 18 18 18 18 18 18 19 19 19 19 19 18 18 19 20 20 20 21
37 36 36 35 34 35 34 34 35 36 35 35 33 33 34 34 32 27 29 29 28 28 27 26 25 24 22 21 22 22 21 19 19 19 18 19 19 19 19 19 19 19 18 18 19 19 19 19 20
Height
763 760 758 753 769 751 756 747 724 737 739 726 730 739 746 748 756 775 761 764 766 772 779 784 787 791 794 796 799 801 805 807 810 812 815 817 818 820 822 823 825 825 826 827 829 830 830 831 831
764 760 756 744 780 800 758 739 742 736 733 729 730 730 744 763 753 759 764 768 768 774 780 785 788 792 795 797 800 804 805 809 810 814 816 818 820 823 823 825 826 827 827 827 829 830 831 831 832
765 761 748 739 778 779 763 735 737 736 732 732 736 737 744 760 755 758 765 770 771 775 780 784 789 793 796 800 803 805 808 810 813 815 817 820 822 823 826 826 826 828 828 828 829 830 831 831 833
759 748 745 786 779 735 737 732 730 737 731 730 730 749 751 756 756 759 769 772 774 776 780 784 790 794 798 801 804 807 810 811 815 816 818 821 822 824 826 828 827 829 829 829 830 830 832 831 833
757 740 749 743 739 732 726 725 727 735 732 735 732 748 757 760 762 765 770 773 777 777 780 787 792 796 799 803 806 809 811 813 816 818 820 822 823 825 827 828 828 829 830 830 830 831 832 832 834
751 733 780 761 742 728 723 718 723 729 731 738 735 733 752 760 763 767 771 773 777 779 784 789 793 797 800 803 805 808 812 815 818 820 822 823 824 826 827 829 828 829 830 830 830 831 833 832 834
755 737 756 739 737 735 733 719 722 725 732 733 726 730 744 755 764 768 772 774 778 781 786 790 794 798 800 804 806 809 814 815 819 822 823 823 825 826 827 828 828 829 830 831 831 831 833 833 834
746 736 741 732 741 740 725 718 720 724 731 726 722 735 748 753 765 769 775 778 782 783 787 790 794 798 801 804 807 811 813 817 819 822 821 824 824 825 826 828 828 829 830 831 831 831 832 833 834
740 746 744 734 740 732 715 724 719 719 722 726 726 728 735 754 763 769 775 781 784 787 788 791 794 798 800 803 806 809 813 816 818 818 821 823 824 822 824 825 827 829 829 831 830 831 832 833 834
747 743 735 726 727 732 724 727 724 724 722 737 739 735 744 754 762 767 774 779 783 786 788 791 794 797 799 802 806 808 812 815 816 816 814 819 821 820 822 823 824 826 829 831 831 830 831 832 833
740 744 726 726 725 723 725 721 712 720 727 728 717 737 744 754 760 765 769 773 779 785 790 792 793 797 800 799 804 807 811 814 816 816 816 816 819 819 818 820 822 824 828 829 829 831 831 831 832
753 733 731 726 723 725 726 716 722 717 715 715 717 729 742 752 758 764 768 772 776 781 785 790 793 796 798 799 801 806 806 810 813 813 814 813 816 817 818 817 819 822 825 826 827 828 829 830 831
747 735 728 724 721 721 720 724 721 723 712 718 720 733 742 748 756 763 768 772 776 781 786 790 794 796 797 799 799 802 800 805 809 811 812 811 812 813 815 817 818 819 822 825 826 828 829 829 831
730 734 731 726 723 719 729 721 715 719 715 724 729 736 741 746 754 761 767 772 776 781 784 787 791 795 797 798 800 801 802 801 806 808 810 809 811 813 814 816 817 816 819 823 826 827 828 828 829
734 751 736 725 718 727 718 728 753 717 719 727 732 736 739 746 752 759 765 770 775 779 783 787 791 794 796 798 799 801 801 803 805 806 807 808 809 810 812 814 814 813 817 822 825 827 828 828 828
751 744 752 717 723 718 725 759 729 717 721 730 731 735 740 746 751 757 763 768 773 776 780 784 787 791 794 797 798 799 799 799 799 800 804 805 807 808 809 812 811 812 817 819 823 826 826 826 827
741 755 739 733 723 725 730 738 725 717 721 728 731 734 739 745 750 756 760 766 770 775 778 782 785 789 791 793 795 796 797 797 796 796 799 802 803 805 806 808 810 812 816 817 821 824 825 824 827
746 741 733 747 731 727 734 732 717 722 722 725 727 733 737 741 748 754 759 762 767 773 777 780 783 785 788 790 792 793 795 794 793 793 793 797 800 802 803 805 807 810 814 817 819 820 821 823 825
733 741 742 733 728 740 736 734 722 718 722 722 726 729 735 738 739 747 756 761 765 771 775 779 781 783 785 787 790 790 792 791 789 790 791 792 795 797 799 802 805 807 810 814 816 817 820 822 824
742 751 749 734 728 739 736 734 716 714 718 716 719 727 730 735 738 741 749 758 763 769 774 778 779 780 781 784 786 787 788 788 787 786 787 789 791 793 796 798 801 804 807 811 814 816 818 821 822
745 749 744 746 733 730 737 742 727 717 712 714 717 719 722 727 732 739 749 756 762 768 772 774 777 778 779 781 782 783 783 784 784 783 783 784 785 788 791 794 797 800 804 808 811 813 816 819 820
753 729 738 742 750 760 727 763 738 726 717 715 720 723 724 727 732 735 749 757 762 765 769 771 776 775 778 780 779 778 778 779 779 779 779 779 781 783 786 789 793 796 800 804 808 810 814 817 819
741 727 740 742 748 747 741 753 729 716 724 714 713 719 721 725 731 739 751 757 762 764 766 770 775 777 778 778 778 778 776 776 776 775 775 775 776 778 782 786 789 792 796 800 803 807 811 814 817
724 740 744 744 745 766 743 742 735 727 732 717 717 721 724 731 734 745 756 762 763 764 767 770 775 777 778 778 777 777 775 773 772 771 771 771 773 775 778 782 785 789 792 796 800 803 807 811 814
732 748 771 776 767 761 728 744 734 714 718 717 721 725 726 733 740 753 758 761 765 766 769 771 773 775 777 777 777 776 775 772 770 767 767 768 770 772 775 778 782 785 788 792 796 800 805 808 812
736 740 754 777 762 750 732 750 733 711 711 719 719 719 724 731 740 753 756 760 765 767 769 771 773 776 777 778 778 777 775 772 770 766 766 768 769 771 773 776 779 782 786 790 795 799 803 807 810
732 748 722 741 731 742 739 713 713 713 719 721 722 722 728 728 741 750 750 759 766 767 768 769 772 775 776 777 778 777 776 772 771 769 768 768 770 771 773 774 777 781 784 789 793 798 802 806 808
717 712 749 739 771 768 739 731 727 724 724 723 725 726 727 729 740 747 748 758 764 767 769 770 773 775 777 777 778 778 777 774 774 773 771 771 771 773 773 775 778 781 784 788 793 797 801 804 806
723 728 727 718 725 751 752 732 735 728 710 718 722 722 726 729 737 741 750 760 765 768 770 771 773 776 777 778 778 777 778 777 776 776 776 776 776 777 778 779 780 783 787 790 794 797 800 803 806
700 717 720 736 746 728 740 744 704 704 708 708 719 721 722 725 734 747 754 757 762 764 766 769 773 776 778 778 778 778 779 780 780 780 780 780 780 781 782 784 784 786 789 792 794 797 800 803 806
Wind_Speed
2 5 7 7 5 4 7 9 16 17 15 14 13 12 10 15 15 6 8 8 15 18 17 17 17 20 18 15 14 16 17 19 19 17 16 13 13 13 11 13 11 10 9 9 8 10 10 9 9
4 6 8 4 3 2 9 14 15 14 12 6 8 4 11 13 13 10 11 10 16 20 18 18 17 20 17 15 14 15 17 20 20 18 15 13 11 10 11 11 10 7 7 7 8 8 9 9 10
9 7 9 4 6 4 4 12 12 9 5 7 5 10 8 7 8 9 13 14 13 15 17 18 17 20 16 14 12 14 16 17 17 16 15 13 10 10 9 9 8 6 6 6 8 9 9 10 9
9 10 6 7 16 11 8 10 12 7 6 2 4 14 9 8 3 9 16 15 14 14 17 17 15 19 16 15 13 12 14 16 16 15 13 12 10 9 8 7 6 5 5 6 6 7 10 10 11
14 9 10 5 8 6 7 8 3 2 10 4 8 12 10 6 8 14 15 15 13 13 19 16 15 14 15 14 13 12 13 15 15 14 13 12 10 9 7 7 6 5 5 7 8 8 9 10 11
10 7 10 7 5 3 7 3 5 2 8 4 6 10 12 11 11 14 13 14 14 13 16 13 14 14 14 15 14 14 13 13 14 13 12 10 8 8 9 7 5 5 6 7 7 8 9 11 11
13 12 8 8 9 12 7 1 0 8 6 6 5 7 12 12 12 13 12 12 12 13 14 13 13 13 14 13 14 13 14 14 14 12 9 8 9 8 7 6 6 6 8 8 8 9 10 11 11
8 11 4 4 11 11 7 6 6 7 12 5 7 1 10 16 16 14 14 11 13 9 12 12 13 14 13 12 13 14 14 14 12 10 10 9 9 8 8 7 8 7 8 9 9 9 9 10 12
11 13 5 3 2 5 11 8 8 2 6 6 4 9 15 22 19 15 15 13 12 11 14 14 15 14 14 13 14 14 15 15 14 14 9 10 9 10 10 7 9 8 8 10 9 10 11 11 11
14 12 10 10 6 8 4 4 6 5 8 7 7 11 20 22 19 16 16 15 13 12 11 12 11 11 11 13 12 17 15 16 19 15 11 14 12 15 8 11 9 8 9 9 9 10 11 11 11
13 17 10 3 2 7 12 10 3 5 14 9 22 16 16 18 15 13 13 14 15 14 13 11 12 11 12 16 13 16 16 15 18 19 21 23 19 9 8 10 7 8 10 9 11 10 11 12 9
14 14 6 9 6 11 12 10 10 4 11 13 13 17 16 15 13 13 12 12 13 12 10 9 8 9 9 11 11 16 17 18 17 22 22 18 17 17 12 9 7 9 10 11 12 13 13 10 13
14 16 8 12 11 7 12 12 3 10 5 4 13 13 16 15 14 14 14 13 12 13 12 12 11 10 9 8 6 10 17 17 19 19 27 22 15 14 17 12 10 8 10 11 11 10 10 10 10
10 19 11 15 16 6 10 15 5 7 1 6 10 13 14 14 15 15 15 14 13 13 13 13 13 12 11 10 8 8 12 7 13 16 18 22 16 15 17 20 13 10 10 12 11 12 10 10 12
12 13 17 20 10 10 9 20 20 9 7 10 10 11 12 12 16 16 16 14 14 13 12 12 11 12 11 9 8 9 12 13 15 18 16 17 19 18 15 16 15 9 12 11 13 11 12 9 6
15 18 18 14 1 6 9 15 14 9 9 9 10 11 11 13 14 16 15 14 14 13 13 12 12 13 12 9 9 10 11 13 14 16 18 20 19 21 20 18 16 12 12 14 14 12 12 14 11
15 15 18 6 3 6 7 13 7 3 6 10 9 9 11 12 13 16 16 16 16 14 14 14 12 12 12 11 11 11 11 11 14 15 18 20 21 20 20 21 19 18 13 14 17 17 15 13 13
12 17 8 8 5 8 9 14 8 8 6 6 11 10 10 13 15 16 15 15 15 15 14 13 13 13 12 12 11 10 11 12 14 17 18 20 21 21 24 20 19 18 19 15 18 19 17 12 11
16 12 10 2 4 8 12 5 10 8 10 8 8 10 9 11 14 19 17 15 14 14 14 14 14 13 12 11 11 10 12 13 14 14 18 16 20 23 22 22 22 17 21 19 18 20 16 7 9
14 12 13 12 4 8 12 13 12 12 10 6 10 8 11 10 11 13 15 14 15 13 13 13 14 14 12 9 10 10 9 11 14 17 22 20 20 22 24 22 23 22 19 18 18 19 14 11 12
14 14 12 13 9 10 14 17 19 3 7 4 4 6 10 9 13 13 10 12 12 11 12 14 13 13 7 7 9 8 8 10 12 15 17 18 21 22 23 22 22 23 21 22 20 19 16 11 13
14 14 11 12 10 13 8 12 9 17 9 11 9 7 8 7 7 8 11 10 10 10 8 9 9 3 4 4 9 7 7 12 14 14 15 15 18 22 22 23 21 23 24 20 21 18 20 13 11
13 2 7 11 14 14 13 7 3 10 8 8 8 8 6 5 6 11 10 11 8 6 6 5 3 1 1 3 4 7 11 14 15 14 14 13 15 18 20 23 22 20 20 20 20 23 17 17 14
12 6 9 10 12 13 15 15 5 4 3 6 3 5 7 7 11 14 14 7 6 5 3 1 2 2 4 3 6 9 11 13 11 9 10 13 13 15 16 20 21 20 20 19 19 19 21 17 19
13 12 9 10 11 14 8 5 7 4 6 1 8 8 9 10 13 13 10 8 5 5 4 1 3 3 2 3 3 5 10 9 10 9 5 9 11 11 13 17 19 20 22 21 22 22 20 20 14
18 15 12 12 5 5 8 8 3 8 10 6 4 6 11 10 15 11 10 8 7 7 5 2 6 2 1 1 4 7 7 8 8 4 4 5 7 9 11 15 16 19 20 19 17 19 16 15 13
13 16 19 18 14 11 12 6 14 9 8 8 8 8 8 10 15 12 12 12 8 7 6 3 4 2 1 1 3 4 7 8 7 6 3 3 5 7 9 12 14 17 18 19 18 16 19 15 15
19 13 13 10 15 12 11 9 1 14 12 11 9 8 9 9 15 13 11 12 8 6 5 4 2 4 1 2 1 5 4 8 9 11 9 9 8 7 8 9 13 15 18 19 17 16 14 14 12
12 13 14 17 12 12 12 4 12 20 12 14 10 10 11 11 13 10 11 9 6 6 5 3 3 2 1 5 3 3 6 9 10 12 11 11 11 9 9 10 12 14 13 12 13 14 14 12 11
16 18 17 10 13 9 9 8 8 8 9 13 12 9 11 13 9 11 11 11 7 5 5 6 2 3 2 3 1 2 6 4 6 8 8 8 9 9 10 9 9 10 12 12 11 10 9 8 4
Wind_Direction
238 247 260 266 288 293 84 76 68 52 56 65 56 50 66 31 6 30 140 142 168 140 154 161 173 179 176 174 174 178 183 182 177 171 164 161 152 149 145 143 149 141 133 139 147 148 145 141 129
264 294 236 268 69 285 63 108 70 59 66 70 69 57 47 66 61 97 118 152 159 157 158 165 177 181 179 173 172 175 179 178 176 173 165 163 161 153 147 150 155 153 144 156 157 164 158 152 140
239 275 278 268 174 195 113 78 91 84 75 48 97 53 21 87 89 121 116 153 152 153 159 168 176 181 182 176 172 168 173 177 176 174 165 166 166 154 153 161 160 173 158 165 169 170 157 154 149
257 229 231 133 242 62 130 90 99 136 121 360 312 94 99 38 85 92 140 152 150 166 158 163 173 181 183 185 179 172 170 176 178 173 172 170 169 162 160 178 170 173 172 172 167 170 154 156 158
247 257 284 279 96 92 73 46 82 216 71 69 325 91 87 104 106 127 144 153 157 166 134 146 169 176 189 192 193 181 173 175 176 175 175 172 173 173 171 183 172 180 193 179 180 169 159 162 165
265 249 348 161 165 119 122 164 93 174 90 67 252 128 90 128 128 135 151 159 164 167 135 148 167 176 185 190 191 187 178 173 174 173 173 178 179 181 185 196 201 186 201 188 177 169 168 165 170
264 294 215 169 99 99 28 341 53 81 68 71 301 139 116 153 128 141 150 162 156 172 142 155 170 178 186 189 188 186 178 175 177 179 182 177 183 190 207 210 221 209 213 198 181 179 169 168 167
297 276 184 97 134 71 95 177 69 305 84 83 302 359 130 129 145 142 146 156 169 181 140 165 179 177 180 184 186 181 175 171 169 169 179 189 198 200 210 216 240 216 217 210 189 181 172 172 171
248 265 188 57 18 45 50 15 124 40 162 201 147 47 107 143 146 144 141 155 170 185 194 180 178 184 188 187 184 175 180 174 170 177 190 200 203 215 204 208 225 227 217 208 191 191 175 180 172
244 244 341 36 19 331 335 336 342 229 181 162 138 109 127 145 153 150 159 164 177 187 184 189 182 196 205 205 187 181 180 181 179 188 199 208 211 201 188 210 222 221 226 215 198 200 187 189 177
234 271 43 104 33 302 314 278 168 290 278 198 162 148 145 153 158 158 166 158 174 177 193 183 184 199 202 203 190 182 183 187 194 207 204 238 231 208 201 203 210 212 223 211 198 200 201 199 200
248 257 281 291 307 288 284 346 300 279 321 18 92 137 151 164 161 161 163 163 167 171 182 182 188 185 202 192 185 194 179 193 198 201 207 233 241 230 219 207 206 212 220 220 208 207 205 182 195
231 272 270 276 270 308 308 274 291 296 1 35 104 141 160 165 160 162 164 164 158 165 172 174 174 174 182 208 215 206 193 190 207 211 221 246 223 215 216 225 206 208 222 219 206 214 198 209 199
241 232 276 276 276 288 283 282 258 88 194 145 140 157 172 165 162 164 168 169 167 172 177 176 175 175 182 191 205 225 235 234 217 208 225 230 225 227 223 222 220 209 219 225 213 210 197 210 202
269 256 252 247 245 288 314 272 339 106 146 150 163 171 171 167 165 171 174 176 183 181 180 179 178 180 183 194 210 217 225 219 229 232 223 226 223 228 227 229 228 205 223 224 218 206 194 213 229
240 247 252 230 165 234 277 103 168 136 144 154 172 176 169 175 174 175 175 183 186 191 187 189 186 185 185 192 206 218 223 230 233 221 228 226 222 226 238 230 227 221 227 214 216 211 202 204 219
221 249 222 144 163 302 258 307 99 177 159 166 175 177 180 180 181 182 183 190 189 198 191 194 192 189 189 193 202 214 224 233 246 238 229 234 226 221 220 222 222 222 222 213 210 213 221 205 208
234 208 231 264 164 237 267 248 181 173 201 201 184 178 190 191 191 190 199 195 193 197 200 202 198 199 195 199 209 212 222 234 243 248 221 226 231 223 221 222 222 211 216 212 207 204 224 210 214
298 292 305 229 255 284 262 324 259 159 208 201 194 177 197 208 199 188 198 211 201 200 203 209 205 205 207 212 214 224 225 245 255 252 249 225 224 225 219 218 225 216 218 211 210 208 223 203 207
253 257 256 252 227 255 272 273 259 174 217 250 181 212 190 193 218 190 185 204 209 202 209 215 216 210 218 226 227 230 241 250 256 254 241 236 228 222 219 216 218 219 214 214 210 204 202 206 200
236 249 247 254 191 245 260 259 248 353 180 194 237 227 199 209 191 195 172 203 207 211 210 222 216 227 228 242 236 245 258 254 250 241 239 230 224 222 220 216 215 215 211 208 209 204 200 197 214
244 219 255 274 260 264 183 288 168 220 186 182 207 214 219 194 194 169 167 188 199 206 212 215 225 209 251 262 276 277 257 266 262 259 245 232 220 217 219 217 212 208 205 203 205 204 213 209 211
249 175 261 253 251 259 267 243 221 193 236 216 181 171 212 129 200 144 159 158 184 185 180 138 137 165 332 287 288 290 283 286 277 256 245 234 220 211 213 211 208 205 202 203 208 205 209 213 218
243 212 237 241 249 246 228 253 283 35 242 81 110 153 141 137 125 120 117 128 167 139 109 97 124 75 326 309 303 294 295 298 287 258 238 227 207 203 208 208 205 201 201 199 201 206 208 216 219
222 199 221 216 224 235 136 232 281 134 96 76 148 165 148 130 125 125 137 151 160 115 75 54 54 68 332 342 19 331 308 314 311 279 230 184 203 204 199 198 200 201 201 200 203 203 206 209 211
207 222 239 221 280 184 187 233 141 71 132 160 185 172 132 168 125 132 112 184 138 125 109 87 72 22 212 230 323 354 355 340 351 23 150 195 199 196 193 194 197 198 193 188 189 193 196 191 192
186 226 245 276 281 267 191 200 150 123 156 152 175 167 159 170 130 155 154 149 148 126 127 89 100 77 30 215 293 333 13 22 33 24 49 159 167 172 179 176 184 185 183 177 165 165 177 178 182
246 194 230 239 262 275 234 262 294 179 167 158 158 165 157 166 139 165 140 131 129 132 123 115 96 120 48 316 322 19 57 44 54 53 68 80 109 112 122 140 161 165 167 163 167 166 170 172 175
209 227 236 243 231 274 259 223 108 287 147 155 156 158 159 169 161 148 127 132 133 119 117 117 117 116 221 295 313 55 95 83 68 68 64 79 87 103 100 111 134 142 142 148 166 168 160 157 167
231 210 235 243 230 276 354 1 156 56 137 143 144 159 167 161 160 123 134 160 161 139 116 107 44 139 187 282 266 122 130 125 68 85 93 82 95 103 106 101 111 126 141 152 146 136 146 143 154